Time,TemperatureF,DewpointF,PressureIn,WindDirection,WindDirectionDegrees,WindSpeedMPH,WindSpeedGustMPH,Humidity,HourlyPrecipIn,Conditions,Clouds,dailyrainin,SolarRadiationWatts/m^2,SoftwareType,DateUTC
2013-03-28 00:00:00,29.0,25.0,-100.00,SW,225,1.0,-999.0,85,-99.99,,,-99.99,0.000000,,2013-03-28 04:00:00,
2013-03-28 00:42:00,29.0,25.0,-100.00,SW,225,1.0,-999.0,85,-99.99,,,-99.99,0.000000,,2013-03-28 04:42:00,
2013-03-28 00:52:00,29.0,25.0,-100.00,SW,225,1.0,-999.0,85,-99.99,,,-99.99,0.000000,,2013-03-28 04:52:00,
2013-03-28 01:00:00,29.0,24.0,-100.00,SW,225,2.0,-999.0,82,-99.99,,,-99.99,0.000000,,2013-03-28 05:00:00,
2013-03-28 01:43:00,29.0,24.0,-100.00,SW,225,2.0,-999.0,82,-99.99,,,-99.99,0.000000,,2013-03-28 05:43:00,
2013-03-28 01:52:00,29.0,24.0,-100.00,SW,225,2.0,-999.0,82,-99.99,,,-99.99,0.000000,,2013-03-28 05:52:00,
2013-03-28 02:00:00,29.0,23.0,-100.00,SW,225,1.0,-999.0,81,-99.99,,,-99.99,0.000000,,2013-03-28 06:00:00,
2013-03-28 02:42:00,29.0,23.0,-100.00,SW,225,1.0,-999.0,81,-99.99,,,-99.99,0.000000,,2013-03-28 06:42:00,
2013-03-28 02:52:00,29.0,23.0,-100.00,SW,225,1.0,-999.0,81,-99.99,,,-99.99,0.000000,,2013-03-28 06:52:00,
2013-03-28 04:00:00,27.0,25.0,-100.00,SW,225,0.0,-999.0,91,-99.99,,,-99.99,0.000000,,2013-03-28 08:00:00,
2013-03-28 04:42:00,27.0,25.0,-100.00,SW,225,0.0,-999.0,91,-99.99,,,-99.99,0.000000,,2013-03-28 08:42:00,
2013-03-28 04:52:00,27.0,25.0,-100.00,SW,225,0.0,-999.0,91,-99.99,,,-99.99,0.000000,,2013-03-28 08:52:00,
2013-03-28 05:00:00,28.0,25.0,-100.00,SW,225,1.0,-999.0,89,-99.99,,,-99.99,0.000000,,2013-03-28 09:00:00,
2013-03-28 05:42:00,28.0,25.0,-100.00,SW,225,1.0,-999.0,89,-99.99,,,-99.99,0.000000,,2013-03-28 09:42:00,
2013-03-28 05:52:00,28.0,25.0,-100.00,SW,225,1.0,-999.0,89,-99.99,,,-99.99,0.000000,,2013-03-28 09:52:00,
2013-03-28 06:00:00,29.0,26.0,-100.00,SW,225,2.0,-999.0,89,-99.99,,,-99.99,0.000000,,2013-03-28 10:00:00,
2013-03-28 06:43:00,29.0,26.0,-100.00,SW,225,2.0,-999.0,89,-99.99,,,-99.99,0.000000,,2013-03-28 10:43:00,
2013-03-28 06:53:00,29.0,26.0,-100.00,SW,225,2.0,-999.0,89,-99.99,,,-99.99,0.000000,,2013-03-28 10:53:00,
2013-03-28 07:00:00,29.0,26.0,-100.00,WSW,247,3.0,-999.0,89,-99.99,,,-99.99,0.000000,,2013-03-28 11:00:00,
2013-03-28 07:43:00,29.0,26.0,-100.00,WSW,247,3.0,-999.0,89,-99.99,,,-99.99,0.000000,,2013-03-28 11:43:00,
2013-03-28 07:52:00,29.0,26.0,-100.00,WSW,247,3.0,-999.0,89,-99.99,,,-99.99,0.000000,,2013-03-28 11:52:00,
2013-03-28 09:00:00,32.0,29.0,-100.00,WSW,247,1.0,-999.0,86,-99.99,,,-99.99,155.440002,,2013-03-28 13:00:00,
2013-03-28 09:42:00,32.0,29.0,-100.00,WSW,247,1.0,-999.0,86,-99.99,,,-99.99,155.440002,,2013-03-28 13:42:00,
2013-03-28 09:52:00,32.0,29.0,-100.00,WSW,247,1.0,-999.0,86,-99.99,,,-99.99,155.440002,,2013-03-28 13:52:00,
2013-03-28 10:00:00,37.0,30.0,-100.00,West,270,6.0,-999.0,75,-99.99,,,-99.99,329.440002,,2013-03-28 14:00:00,
2013-03-28 10:42:00,37.0,30.0,-100.00,West,270,6.0,-999.0,75,-99.99,,,-99.99,329.440002,,2013-03-28 14:42:00,
2013-03-28 10:52:00,37.0,30.0,-100.00,West,270,6.0,-999.0,75,-99.99,,,-99.99,329.440002,,2013-03-28 14:52:00,
2013-03-28 11:00:00,40.0,28.0,-100.00,WNW,292,8.0,-999.0,63,-99.99,,,-99.99,511.559998,,2013-03-28 15:00:00,
2013-03-28 11:43:00,40.0,28.0,-100.00,WNW,292,8.0,-999.0,63,-99.99,,,-99.99,511.559998,,2013-03-28 15:43:00,
2013-03-28 11:53:00,40.0,28.0,-100.00,WNW,292,8.0,-999.0,63,-99.99,,,-99.99,511.559998,,2013-03-28 15:53:00,
2013-03-28 12:00:00,42.0,27.0,-100.00,WNW,292,7.0,-999.0,54,-99.99,,,-99.99,663.520020,,2013-03-28 16:00:00,
2013-03-28 12:42:00,42.0,27.0,-100.00,WNW,292,7.0,-999.0,54,-99.99,,,-99.99,663.520020,,2013-03-28 16:42:00,
2013-03-28 12:52:00,42.0,27.0,-100.00,WNW,292,7.0,-999.0,54,-99.99,,,-99.99,663.520020,,2013-03-28 16:52:00,
2013-03-28 13:00:00,44.0,26.0,-100.00,West,270,7.0,-999.0,49,-99.99,,,-99.99,767.919983,,2013-03-28 17:00:00,
2013-03-28 13:42:00,44.0,26.0,-100.00,West,270,7.0,-999.0,49,-99.99,,,-99.99,767.919983,,2013-03-28 17:42:00,
2013-03-28 13:52:00,44.0,26.0,-100.00,West,270,7.0,-999.0,49,-99.99,,,-99.99,767.919983,,2013-03-28 17:52:00,
2013-03-28 15:00:00,45.0,26.0,-100.00,West,270,9.0,-999.0,46,-99.99,,,-99.99,760.960022,,2013-03-28 19:00:00,
2013-03-28 15:43:00,45.0,26.0,-100.00,West,270,9.0,-999.0,46,-99.99,,,-99.99,760.960022,,2013-03-28 19:43:00,
2013-03-28 15:52:00,45.0,26.0,-100.00,West,270,9.0,-999.0,46,-99.99,,,-99.99,760.960022,,2013-03-28 19:52:00,
2013-03-28 16:00:00,45.0,26.0,-100.00,West,270,10.0,-999.0,46,-99.99,,,-99.99,716.880005,,2013-03-28 20:00:00,
2013-03-28 16:42:00,45.0,26.0,-100.00,West,270,10.0,-999.0,46,-99.99,,,-99.99,716.880005,,2013-03-28 20:42:00,
2013-03-28 16:53:00,45.0,26.0,-100.00,West,270,10.0,-999.0,46,-99.99,,,-99.99,716.880005,,2013-03-28 20:53:00,
2013-03-28 17:00:00,45.0,24.0,-100.00,WNW,292,9.0,-999.0,43,-99.99,,,-99.99,610.159973,,2013-03-28 21:00:00,
2013-03-28 17:43:00,45.0,24.0,-100.00,WNW,292,9.0,-999.0,43,-99.99,,,-99.99,610.159973,,2013-03-28 21:43:00,
2013-03-28 17:53:00,45.0,24.0,-100.00,WNW,292,9.0,-999.0,43,-99.99,,,-99.99,610.159973,,2013-03-28 21:53:00,
2013-03-28 18:00:00,45.0,23.0,-100.00,WNW,292,9.0,-999.0,42,-99.99,,,-99.99,445.440002,,2013-03-28 22:00:00,
2013-03-28 18:42:00,45.0,23.0,-100.00,WNW,292,9.0,-999.0,42,-99.99,,,-99.99,445.440002,,2013-03-28 22:42:00,
2013-03-28 18:52:00,45.0,23.0,-100.00,WNW,292,9.0,-999.0,42,-99.99,,,-99.99,445.440002,,2013-03-28 22:52:00,
2013-03-28 19:00:00,43.0,23.0,-100.00,WNW,292,7.0,-999.0,43,-99.99,,,-99.99,254.039993,,2013-03-28 23:00:00,
2013-03-28 19:42:00,43.0,23.0,-100.00,WNW,292,7.0,-999.0,43,-99.99,,,-99.99,254.039993,,2013-03-28 23:42:00,
2013-03-28 19:53:00,43.0,23.0,-100.00,WNW,292,7.0,-999.0,43,-99.99,,,-99.99,254.039993,,2013-03-28 23:53:00,
2013-03-28 21:00:00,34.0,25.0,-100.00,WNW,292,0.0,-999.0,69,-99.99,,,-99.99,1.160000,,2013-03-29 01:00:00,
2013-03-28 21:42:00,34.0,25.0,-100.00,WNW,292,0.0,-999.0,69,-99.99,,,-99.99,1.160000,,2013-03-29 01:42:00,
2013-03-28 21:52:00,34.0,25.0,-100.00,WNW,292,0.0,-999.0,69,-99.99,,,-99.99,1.160000,,2013-03-29 01:52:00,
2013-03-28 23:00:00,27.0,24.0,-100.00,WSW,247,0.0,-999.0,89,-99.99,,,-99.99,0.000000,,2013-03-29 03:00:00,
2013-03-28 23:43:00,27.0,24.0,-100.00,WSW,247,0.0,-999.0,89,-99.99,,,-99.99,0.000000,,2013-03-29 03:43:00,
2013-03-28 23:53:00,27.0,24.0,-100.00,WSW,247,0.0,-999.0,89,-99.99,,,-99.99,0.000000,,2013-03-29 03:53:00,